Location: Nairn
(57.5833°N, 3.8667°W)
Time: 17:41:52
(UTC+00:00)

S-56A Canister/Altair - Pass Details

Date: 28 November 2020
Orbit: 633 x 2499 km, 38.9° (Epoch: 19 January)

Event Time Altitude Azimuth Distance (km) Brightness Sun altitude
Rises 19:49:52 0° 215° (SW) 5,387 12.1 -32.1°
Reaches altitude 10° 19:55:29 10° 197° (SSW) 3,991 11.2 -32.9°
Enters shadow 19:59:08 15° 177° (S) 3,312 10.6 -33.4°
Maximum altitude 20:00:49 16° 165° (SSE) 3,123 - -33.6°
Drops below altitude 10° 20:05:14 10° 132° (SE) 3,186 - -34.2°
Sets 20:08:55 0° 110° (ESE) 3,828 - -34.6°
